TimeEDT,TemperatureF,Dew PointF,Humidity,Sea Level PressureIn,VisibilityMPH,Wind Direction,Wind SpeedMPH,Gust SpeedMPH,PrecipitationIn,Events,Conditions,WindDirDegrees,DateUTC
12:53 AM,-9999,-9999,N/A,29.59,-9999.0,North,-9999.0,-,N/A,,Unknown,0,2012-10-31 04:53:00
1:53 AM,-9999,-9999,N/A,29.58,-9999.0,North,-9999.0,-,N/A,,Unknown,0,2012-10-31 05:53:00
2:53 AM,-9999,-9999,N/A,29.58,-9999.0,North,-9999.0,-,N/A,,Unknown,0,2012-10-31 06:53:00
3:53 AM,-9999,-9999,N/A,29.59,-9999.0,North,-9999.0,-,N/A,,Unknown,0,2012-10-31 07:53:00
4:53 AM,-9999,-9999,N/A,29.60,-9999.0,North,-9999.0,-,N/A,,Unknown,0,2012-10-31 08:53:00
5:53 AM,-9999,-9999,N/A,29.61,-9999.0,North,-9999.0,-,N/A,,Unknown,0,2012-10-31 09:53:00
6:53 AM,-9999,-9999,N/A,29.61,-9999.0,North,-9999.0,-,N/A,,Unknown,0,2012-10-31 10:53:00
7:53 AM,-9999,-9999,N/A,29.62,-9999.0,North,-9999.0,-,N/A,,Unknown,0,2012-10-31 11:53:00
8:53 AM,-9999,-9999,N/A,29.63,-9999.0,North,-9999.0,-,N/A,,Unknown,0,2012-10-31 12:53:00
9:53 AM,-9999,-9999,N/A,29.64,-9999.0,North,-9999.0,-,N/A,,Unknown,0,2012-10-31 13:53:00
10:53 AM,-9999,-9999,N/A,29.64,-9999.0,North,-9999.0,-,N/A,,Unknown,0,2012-10-31 14:53:00
11:53 AM,-9999,-9999,N/A,29.65,-9999.0,North,-9999.0,-,N/A,,Unknown,0,2012-10-31 15:53:00
12:53 PM,-9999,-9999,N/A,29.65,-9999.0,North,-9999.0,-,N/A,,Unknown,0,2012-10-31 16:53:00
1:53 PM,-9999,-9999,N/A,29.65,-9999.0,North,-9999.0,-,N/A,,Unknown,0,2012-10-31 17:53:00
2:53 PM,-9999,-9999,N/A,29.65,-9999.0,North,-9999.0,-,N/A,,Unknown,0,2012-10-31 18:53:00
3:53 PM,-9999,-9999,N/A,29.66,-9999.0,North,-9999.0,-,N/A,,Unknown,0,2012-10-31 19:53:00
4:53 PM,-9999,-9999,N/A,29.67,-9999.0,North,-9999.0,-,N/A,,Unknown,0,2012-10-31 20:53:00
5:53 PM,-9999,-9999,N/A,29.69,-9999.0,North,-9999.0,-,N/A,,Unknown,0,2012-10-31 21:53:00
6:53 PM,-9999,-9999,N/A,29.70,-9999.0,North,-9999.0,-,N/A,,Unknown,0,2012-10-31 22:53:00
7:53 PM,-9999,-9999,N/A,29.71,-9999.0,North,-9999.0,-,N/A,,Unknown,0,2012-10-31 23:53:00
8:53 PM,-9999,-9999,N/A,29.72,-9999.0,North,-9999.0,-,N/A,,Unknown,0,2012-11-01 00:53:00
9:53 PM,-9999,-9999,N/A,29.73,-9999.0,North,-9999.0,-,N/A,,Unknown,0,2012-11-01 01:53:00
10:53 PM,-9999,-9999,N/A,29.74,-9999.0,North,-9999.0,-,N/A,,Unknown,0,2012-11-01 02:53:00
11:53 PM,-9999,-9999,N/A,29.74,-9999.0,North,-9999.0,-,N/A,,Unknown,0,2012-11-01 03:53:00